IW2DGQ-3 Weather Reports


time (UTC)temp
C
wind
direction
speed
KPH
gust
KPH
rain 1hr
cm
rain 24hr
cm
rain mn
cm
humidity
%
barometer
mb
20260906112051 33 0.0 0.0 0.00 0.00 0.00 45 1022.3
20260906110050 32 0.0 0.0 0.00 0.00 0.00 46 1022.4
20260906104050 33 0.0 0.0 0.00 0.00 0.00 46 1022.5
20260906102050 32 0.0 0.0 0.00 0.00 0.00 46 1022.7
20260906100049 32 0.0 0.0 0.00 0.00 0.00 47 1022.8
20260906094049 31 0.0 0.0 0.00 0.00 0.00 48 1022.8
20260906092049 32 0.0 0.0 0.00 0.00 0.00 45 1022.9
20260906090048 32 0.0 0.0 0.00 0.00 0.00 43 1022.9
20260906084048 32 0.0 0.0 0.00 0.00 0.00 43 1022.9
20260906082048 32 0.0 0.0 0.00 0.00 0.00 41 1022.8
20260906080047 37 0.0 0.0 0.00 0.00 0.00 34 1022.7
20260906074047 38 0.0 0.0 0.00 0.00 0.00 34 1022.6
20260906072047 37 0.0 0.0 0.00 0.00 0.00 36 1022.6
20260906070046 36 0.0 0.0 0.00 0.00 0.00 36 1022.3
20260906064046 36 0.0 0.0 0.00 0.00 0.00 39 1022.2
20260906062046 35 0.0 0.0 0.00 0.00 0.00 44 1022.2
20260906060045 31 0.0 0.0 0.00 0.00 0.00 55 1022.0
20260906054045 25 0.0 0.0 0.00 0.00 0.00 59 1021.9
20260906052045 26 0.0 0.0 0.00 0.00 0.00 67 1021.6
20260906050045 22 0.0 0.0 0.00 0.00 0.00 71 1021.3
20260906045725 22 0.0 0.0 0.00 0.00 0.00 72 1021.3
20260906043725 22 0.0 0.0 0.00 0.00 0.00 74 1021.1
20260906041724 22 0.0 0.0 0.00 0.00 0.00 75 1020.9
20260906035724 22 0.0 0.0 0.00 0.00 0.00 75 1020.7
20260906033724 23 0.0 0.0 0.00 0.00 0.00 76 1020.6
20260906031724 23 0.0 0.0 0.00 0.00 0.00 77 1020.5
20260906025723 23 0.0 0.0 0.00 0.00 0.00 76 1020.3
20260906023723 23 0.0 0.0 0.00 0.00 0.00 75 1020.4
20260906021723 23 0.0 0.0 0.00 0.00 0.00 74 1020.3
20260906015722 23 0.0 0.0 0.00 0.00 0.00 73 1020.1
20260906013722 23 0.0 0.0 0.00 0.00 0.00 74 1020.0
20260906011722 23 0.0 0.0 0.00 0.00 0.00 74 1019.9
20260906005721 23 0.0 0.0 0.00 0.00 0.00 74 1019.9
20260906003721 23 0.0 0.0 0.00 0.00 0.00 73 1019.8
20260906001721 23 0.0 0.0 0.00 0.00 0.00 72 1019.8
20260905235720 23 0.0 0.0 0.00 0.00 0.00 71 1019.9
20260905233720 23 0.0 0.0 0.00 0.00 0.00 69 1019.7
20260905231720 24 0.0 0.0 0.00 0.00 0.00 66 1019.7
20260905225719 24 0.0 0.0 0.00 0.00 0.00 65 1019.4
20260905223719 24 0.0 0.0 0.00 0.00 0.00 65 1019.3
20260905221719 25 0.0 0.0 0.00 0.00 0.00 64 1019.2
20260905215718 25 0.0 0.0 0.00 0.00 0.00 64 1018.9
20260905213718 25 0.0 0.0 0.00 0.00 0.00 62 1018.7
20260905211718 25 0.0 0.0 0.00 0.00 0.00 62 1018.4
20260905205717 25 0.0 0.0 0.00 0.00 0.00 59 1018.2
20260905203717 26 0.0 0.0 0.00 0.00 0.00 55 1018.3
20260905201717 26 0.0 0.0 0.00 0.00 0.00 53 1018.1
20260905195717 27 0.0 0.0 0.00 0.00 0.00 51 1017.9
20260905193716 27 0.0 0.0 0.00 0.00 0.00 50 1017.7
20260905191716 27 0.0 0.0 0.00 0.00 0.00 49 1017.3
20260905185716 28 0.0 0.0 0.00 0.00 0.00 47 1017.1
20260905183715 28 0.0 0.0 0.00 0.00 0.00 47 1016.7
20260905181715 28 0.0 0.0 0.00 0.00 0.00 45 1016.4
20260905175715 30 0.0 0.0 0.00 0.00 0.00 44 1016.3
20260905173714 30 0.0 0.0 0.00 0.00 0.00 43 1016.1
20260905171714 31 0.0 0.0 0.00 0.00 0.00 41 1016.0
20260905165714 32 0.0 0.0 0.00 0.00 0.00 38 1016.0
20260905163713 33 0.0 0.0 0.00 0.00 0.00 37 1015.9
20260905161713 34 0.0 0.0 0.00 0.00 0.00 36 1015.7
20260905155713 35 0.0 0.0 0.00 0.00 0.00 35 1015.8
20260905153712 35 0.0 0.0 0.00 0.00 0.00 34 1015.6
20260905151712 36 0.0 0.0 0.00 0.00 0.00 34 1015.6
20260905145712 36 0.0 0.0 0.00 0.00 0.00 33 1015.7
20260905143711 36 0.0 0.0 0.00 0.00 0.00 33 1015.8
20260905141711 36 0.0 0.0 0.00 0.00 0.00 33 1015.9
20260905135711 36 0.0 0.0 0.00 0.00 0.00 33 1016.1
20260905133710 36 0.0 0.0 0.00 0.00 0.00 33 1016.3
20260905131710 36 0.0 0.0 0.00 0.00 0.00 33 1016.5
20260905125710 35 0.0 0.0 0.00 0.00 0.00 33 1016.8
20260905123709 36 0.0 0.0 0.00 0.00 0.00 33 1017.0
20260905121709 35 0.0 0.0 0.00 0.00 0.00 33 1017.2
20260905121437 35 0.0 0.0 0.00 0.00 0.00 33 1017.2
20260905115437 35 0.0 0.0 0.00 0.00 0.00 34 1017.3
20260905113437 35 0.0 0.0 0.00 0.00 0.00 34 1017.5